| time (UTC) | temp F | wind direction | speed MPH | gust MPH | rain 1hr in | rain 24hr in | rain mn in | humidity % | barometer mb |
| 20260831053908 | 57 | 193 | 1.0 | 5.0 | 0.01 | 0.21 | 0.21 | 93 | 987.9 |
| 20260831053408 | 57 | 224 | 1.0 | 4.0 | 0.01 | 0.21 | 0.21 | 92 | 987.9 |
| 20260831052908 | 57 | 245 | 2.0 | 5.0 | 0.02 | 0.21 | 0.21 | 92 | 987.8 |
| 20260831052410 | 57 | 217 | 1.0 | 5.0 | 0.03 | 0.21 | 0.21 | 93 | 987.6 |
| 20260831051908 | 57 | 180 | 0.0 | 5.0 | 0.04 | 0.21 | 0.21 | 93 | 987.4 |
| 20260831051408 | 56 | 172 | 1.0 | 5.0 | 0.05 | 0.21 | 0.21 | 93 | 987.3 |
| 20260831050913 | 57 | 188 | 2.0 | 6.0 | 0.05 | 0.21 | 0.21 | 92 | 987.4 |
| 20260831050909 | 57 | 207 | 2.0 | 5.0 | 0.05 | 0.21 | 0.21 | 93 | 987.3 |
| 20260831045908 | 57 | 208 | 2.0 | 6.0 | 0.05 | 0.21 | 0.21 | 92 | 987.3 |
| 20260831045408 | 57 | 191 | 2.0 | 7.0 | 0.05 | 0.21 | 0.21 | 92 | 987.4 |
| 20260831044912 | 57 | 131 | 6.0 | 11.0 | 0.05 | 0.21 | 0.21 | 91 | 987.4 |
| 20260831044908 | 57 | 217 | 4.0 | 11.0 | 0.05 | 0.21 | 0.21 | 92 | 987.2 |
| 20260831043909 | 57 | 162 | 5.0 | 10.0 | 0.04 | 0.20 | 0.21 | 91 | 987.8 |
| 20260831043409 | 58 | 213 | 5.0 | 9.0 | 0.04 | 0.20 | 0.20 | 90 | 988.3 |
| 20260831042910 | 58 | 199 | 6.0 | 13.0 | 0.03 | 0.19 | 0.19 | 89 | 988.3 |
| 20260831042409 | 59 | 195 | 4.0 | 13.0 | 0.02 | 0.18 | 0.18 | 87 | 988.4 |
| 20260831041908 | 61 | 206 | 2.0 | 11.0 | 0.01 | 0.17 | 0.17 | 82 | 988.5 |
| 20260831041642 | 65 | 244 | 3.0 | 8.0 | 0.00 | 0.16 | 0.16 | 59 | 987.9 |
| 20260831041636 | 65 | 68 | 2.0 | 7.0 | 0.00 | 0.16 | 0.17 | 62 | 988.5 |
| 20260831040411 | 63 | 205 | 0.0 | 0.0 | 0.00 | 0.16 | 0.16 | 73 | 987.3 |
| 20260831040406 | 64 | 189 | 2.0 | 8.0 | 0.00 | 0.16 | 0.16 | 62 | 987.8 |
| 20260831035906 | 62 | 206 | 0.0 | 5.0 | 0.00 | 0.16 | 0.16 | 75 | 987.8 |
| 20260831035512 | 64 | 205 | 0.0 | 0.0 | 0.00 | 0.16 | 0.16 | 71 | 987.3 |
| 20260831034410 | 64 | 206 | 0.0 | 2.0 | 0.00 | 0.16 | 0.16 | 68 | 987.1 |
| 20260831034406 | 63 | 205 | 0.0 | 0.0 | 0.00 | 0.16 | 0.16 | 67 | 987.1 |
| 20260831033406 | 64 | 205 | 0.0 | 2.0 | 0.00 | 0.16 | 0.16 | 68 | 987.1 |
| 20260831032910 | 64 | 205 | 1.0 | 3.0 | 0.00 | 0.16 | 0.16 | 66 | 987.1 |
| 20260831032906 | 64 | 171 | 0.0 | 3.0 | 0.00 | 0.16 | 0.16 | 67 | 987.1 |
| 20260831031905 | 64 | 193 | 0.0 | 3.0 | 0.00 | 0.16 | 0.16 | 67 | 987.1 |
| 20260831031406 | 64 | 315 | 1.0 | 7.0 | 0.00 | 0.16 | 0.16 | 67 | 987.1 |
| 20260831030906 | 65 | 233 | 1.0 | 7.0 | 0.00 | 0.16 | 0.16 | 67 | 987.1 |
| 20260831030406 | 64 | 354 | 1.0 | 5.0 | 0.00 | 0.16 | 0.16 | 65 | 986.7 |
| 20260831025906 | 63 | 278 | 0.0 | 3.0 | 0.00 | 0.16 | 0.16 | 69 | 987.3 |
| 20260831025405 | 63 | 182 | 0.0 | 1.0 | 0.00 | 0.16 | 0.16 | 71 | 987.4 |
| 20260831024906 | 63 | 288 | 0.0 | 0.0 | 0.00 | 0.16 | 0.16 | 74 | 987.3 |
| 20260831024405 | 63 | 211 | 0.0 | 0.0 | 0.00 | 0.16 | 0.16 | 72 | 987.2 |
| 20260831023906 | 64 | 211 | 0.0 | 0.0 | 0.00 | 0.16 | 0.16 | 72 | 987.1 |
| 20260831023409 | 63 | 238 | 0.0 | 4.0 | 0.00 | 0.16 | 0.16 | 66 | 986.7 |
| 20260831023405 | 64 | 238 | 0.0 | 4.0 | 0.00 | 0.16 | 0.16 | 66 | 986.9 |
| 20260831022408 | 62 | 205 | 0.0 | 2.0 | 0.00 | 0.16 | 0.16 | 73 | 986.5 |
| 20260831022404 | 62 | 210 | 0.0 | 4.0 | 0.00 | 0.16 | 0.16 | 71 | 986.7 |
| 20260831021403 | 61 | 196 | 0.0 | 0.0 | 0.00 | 0.16 | 0.16 | 75 | 986.3 |
| 20260831020907 | 62 | 195 | 0.0 | 0.0 | 0.00 | 0.16 | 0.16 | 75 | 986.0 |
| 20260831020904 | 61 | 196 | 0.0 | 0.0 | 0.00 | 0.16 | 0.16 | 75 | 986.3 |
| 20260831020509 | 62 | 196 | 0.0 | 0.0 | 0.00 | 0.16 | 0.16 | 76 | 985.8 |
| 20260831015903 | 62 | 196 | 0.0 | 0.0 | 0.00 | 0.16 | 0.16 | 74 | 985.8 |
| 20260831014904 | 62 | 196 | 0.0 | 0.0 | 0.00 | 0.16 | 0.16 | 75 | 985.9 |
| 20260831014404 | 62 | 196 | 0.0 | 2.0 | 0.00 | 0.16 | 0.16 | 75 | 985.9 |
| 20260831013903 | 62 | 196 | 1.0 | 4.0 | 0.00 | 0.16 | 0.16 | 75 | 985.8 |
| 20260831013404 | 62 | 203 | 1.0 | 4.0 | 0.00 | 0.16 | 0.16 | 76 | 985.8 |
| 20260831012904 | 62 | 195 | 1.0 | 4.0 | 0.00 | 0.16 | 0.16 | 76 | 985.8 |
| 20260831012404 | 62 | 159 | 1.0 | 3.0 | 0.00 | 0.16 | 0.16 | 76 | 985.8 |
| 20260831011908 | 62 | 165 | 1.0 | 3.0 | 0.00 | 0.16 | 0.16 | 77 | 985.8 |
| 20260831011904 | 62 | 181 | 1.0 | 3.0 | 0.00 | 0.16 | 0.16 | 77 | 985.8 |
| 20260831010903 | 62 | 187 | 1.0 | 3.0 | 0.00 | 0.16 | 0.16 | 77 | 985.8 |
| 20260831010403 | 62 | 169 | 1.0 | 5.0 | 0.00 | 0.16 | 0.16 | 78 | 985.8 |
| 20260831005904 | 62 | 179 | 2.0 | 5.0 | 0.00 | 0.16 | 0.16 | 79 | 985.9 |
| 20260831005407 | 62 | 174 | 1.0 | 4.0 | 0.00 | 0.16 | 0.16 | 79 | 986.3 |
| 20260831005403 | 62 | 168 | 1.0 | 5.0 | 0.00 | 0.16 | 0.16 | 80 | 986.1 |
| 20260831004403 | 62 | 156 | 1.0 | 4.0 | 0.00 | 0.16 | 0.16 | 80 | 986.1 |
| 20260831003903 | 63 | 183 | 1.0 | 4.0 | 0.00 | 0.16 | 0.16 | 80 | 986.0 |
| 20260831003403 | 63 | 194 | 1.0 | 3.0 | 0.00 | 0.16 | 0.16 | 81 | 986.3 |
| 20260831002903 | 62 | 176 | 0.0 | 2.0 | 0.00 | 0.16 | 0.16 | 81 | 986.3 |
| 20260831002403 | 62 | 218 | 0.0 | 2.0 | 0.00 | 0.16 | 0.16 | 80 | 986.3 |
| 20260831001901 | 62 | 200 | 1.0 | 4.0 | 0.00 | 0.16 | 0.16 | 82 | 986.4 |
| 20260831001401 | 62 | 153 | 1.0 | 4.0 | 0.00 | 0.16 | 0.16 | 81 | 986.5 |
| 20260831000902 | 62 | 155 | 0.0 | 1.0 | 0.00 | 0.16 | 0.16 | 81 | 986.6 |
| 20260831000858 | 62 | 187 | 0.0 | 2.0 | 0.00 | 0.16 | 0.16 | 80 | 986.5 |
| 20260830235855 | 62 | 123 | 0.0 | 2.0 | 0.00 | 0.16 | 0.16 | 84 | 986.6 |
| 20260830235355 | 62 | 128 | 0.0 | 2.0 | 0.00 | 0.16 | 0.16 | 83 | 986.5 |
| 20260830234855 | 62 | 202 | 0.0 | 2.0 | 0.00 | 0.16 | 0.16 | 82 | 986.6 |
| 20260830234355 | 62 | 32 | 0.0 | 0.0 | 0.00 | 0.16 | 0.16 | 82 | 986.5 |
| 20260830233859 | 62 | 32 | 0.0 | 2.0 | 0.02 | 0.16 | 0.16 | 83 | 987.1 |
| 20260830233855 | 62 | 32 | 0.0 | 0.0 | 0.01 | 0.16 | 0.16 | 83 | 986.9 |
| 20260830232856 | 62 | 172 | 1.0 | 5.0 | 0.07 | 0.16 | 0.16 | 83 | 987.2 |
| 20260830232354 | 62 | 171 | 1.0 | 5.0 | 0.11 | 0.16 | 0.16 | 83 | 987.3 |
| 20260830231853 | 62 | 178 | 1.0 | 5.0 | 0.11 | 0.16 | 0.16 | 83 | 987.1 |
| 20260830231353 | 62 | 191 | 0.0 | 3.0 | 0.11 | 0.16 | 0.16 | 81 | 986.6 |
| 20260830230857 | 61 | 330 | 0.0 | 1.0 | 0.12 | 0.16 | 0.16 | 79 | 986.5 |
| 20260830230853 | 62 | 307 | 0.0 | 0.0 | 0.11 | 0.16 | 0.16 | 78 | 986.5 |
| 20260830225854 | 61 | 345 | 0.0 | 1.0 | 0.12 | 0.16 | 0.16 | 81 | 986.6 |
| 20260830225344 | 61 | 345 | 0.0 | 2.0 | 0.14 | 0.16 | 0.16 | 83 | 986.5 |
| 20260830224843 | 61 | 350 | 0.0 | 2.0 | 0.14 | 0.16 | 0.16 | 81 | 986.7 |
| 20260830224341 | 61 | 336 | 0.0 | 2.0 | 0.16 | 0.16 | 0.16 | 80 | 987.0 |
| 20260830223843 | 61 | 323 | 0.0 | 1.0 | 0.15 | 0.15 | 0.15 | 80 | 987.3 |
| 20260830223342 | 61 | 283 | 1.0 | 4.0 | 0.14 | 0.14 | 0.14 | 79 | 987.4 |
| 20260830222841 | 62 | 235 | 1.0 | 6.0 | 0.09 | 0.09 | 0.10 | 78 | 987.6 |
| 20260830222339 | 62 | 207 | 1.0 | 6.0 | 0.05 | 0.05 | 0.05 | 76 | 987.4 |
| 20260830221839 | 62 | 317 | 1.0 | 4.0 | 0.05 | 0.05 | 0.05 | 75 | 987.0 |
| 20260830221339 | 62 | 2 | 0.0 | 4.0 | 0.05 | 0.05 | 0.05 | 76 | 986.6 |
| 20260830220844 | 64 | 353 | 2.0 | 7.0 | 0.03 | 0.03 | 0.04 | 67 | 986.9 |
| 20260830220839 | 62 | 335 | 1.0 | 4.0 | 0.05 | 0.05 | 0.05 | 76 | 986.6 |
| 20260830220339 | 63 | 352 | 2.0 | 6.0 | 0.04 | 0.04 | 0.04 | 71 | 986.7 |
| 20260830215340 | 65 | 313 | 4.0 | 13.0 | 0.02 | 0.02 | 0.02 | 61 | 987.2 |
| 20260830214838 | 68 | 310 | 5.0 | 14.0 | 0.02 | 0.02 | 0.02 | 56 | 987.1 |
| 20260830214340 | 71 | 329 | 6.0 | 14.0 | 0.00 | 0.00 | 0.00 | 48 | 986.9 |
| 20260830213839 | 73 | 352 | 8.0 | 19.0 | 0.00 | 0.00 | 0.00 | 43 | 986.4 |
| 20260830213339 | 76 | 1 | 4.0 | 19.0 | 0.00 | 0.00 | 0.00 | 38 | 985.8 |
| 20260830212839 | 80 | 0 | 1.0 | 17.0 | 0.00 | 0.00 | 0.00 | 34 | 985.3 |
| 20260830212338 | 80 | 209 | 1.0 | 17.0 | 0.00 | 0.00 | 0.00 | 33 | 984.5 |
| 20260830211837 | 81 | 266 | 1.0 | 5.0 | 0.00 | 0.00 | 0.00 | 31 | 984.4 |
| 20260830211342 | 81 | 129 | 1.0 | 6.0 | 0.00 | 0.00 | 0.00 | 31 | 984.3 |
| 20260830211337 | 81 | 213 | 1.0 | 5.0 | 0.00 | 0.00 | 0.00 | 31 | 984.4 |
| 20260830210837 | 81 | 218 | 0.0 | 2.0 | 0.00 | 0.00 | 0.00 | 31 | 984.4 |
| 20260830210443 | 81 | 209 | 3.0 | 8.0 | 0.00 | 0.00 | 0.00 | 31 | 984.4 |
| 20260830205337 | 81 | 179 | 4.0 | 9.0 | 0.00 | 0.00 | 0.00 | 31 | 984.3 |
| 20260830204837 | 81 | 219 | 4.0 | 10.0 | 0.00 | 0.00 | 0.00 | 31 | 984.3 |
| 20260830204337 | 81 | 176 | 4.0 | 10.0 | 0.00 | 0.00 | 0.00 | 32 | 984.1 |
| 20260830203837 | 81 | 164 | 4.0 | 11.0 | 0.00 | 0.00 | 0.00 | 31 | 984.3 |
| 20260830203336 | 81 | 212 | 5.0 | 14.0 | 0.00 | 0.00 | 0.00 | 32 | 984.4 |
| 20260830202835 | 81 | 212 | 5.0 | 14.0 | 0.00 | 0.00 | 0.00 | 30 | 984.4 |
| 20260830202335 | 81 | 172 | 2.0 | 9.0 | 0.00 | 0.00 | 0.00 | 30 | 984.3 |
| 20260830201837 | 81 | 145 | 1.0 | 6.0 | 0.00 | 0.00 | 0.00 | 32 | 984.4 |
| 20260830201335 | 81 | 186 | 0.0 | 6.0 | 0.00 | 0.00 | 0.00 | 32 | 984.4 |
| 20260830200839 | 81 | 182 | 1.0 | 5.0 | 0.00 | 0.00 | 0.00 | 35 | 984.3 |
| 20260830200835 | 81 | 222 | 0.0 | 4.0 | 0.00 | 0.00 | 0.00 | 34 | 984.3 |
| 20260830200440 | 81 | 177 | 1.0 | 5.0 | 0.00 | 0.00 | 0.00 | 34 | 984.3 |
| 20260830195333 | 81 | 127 | 0.0 | 3.0 | 0.00 | 0.00 | 0.00 | 35 | 984.1 |
| 20260830194837 | 80 | 192 | 1.0 | 5.0 | 0.00 | 0.00 | 0.00 | 35 | 984.3 |
| 20260830194833 | 81 | 172 | 1.0 | 5.0 | 0.00 | 0.00 | 0.00 | 34 | 984.1 |
| 20260830193831 | 81 | 165 | 1.0 | 5.0 | 0.00 | 0.00 | 0.00 | 34 | 984.3 |
| 20260830193331 | 81 | 126 | 0.0 | 5.0 | 0.00 | 0.00 | 0.00 | 34 | 984.4 |
| 20260830192836 | 80 | 148 | 0.0 | 2.0 | 0.00 | 0.00 | 0.00 | 33 | 984.5 |
| 20260830192831 | 81 | 148 | 0.0 | 5.0 | 0.00 | 0.00 | 0.00 | 34 | 984.4 |
| 20260830192331 | 81 | 110 | 0.0 | 1.0 | 0.00 | 0.00 | 0.00 | 34 | 984.5 |
| 20260830191937 | 80 | 213 | 0.0 | 2.0 | 0.00 | 0.00 | 0.00 | 33 | 984.5 |
| 20260830190829 | 80 | 233 | 0.0 | 1.0 | 0.00 | 0.00 | 0.00 | 33 | 984.6 |
| 20260830190329 | 80 | 270 | 0.0 | 2.0 | 0.00 | 0.00 | 0.00 | 32 | 984.7 |
| 20260830185830 | 80 | 143 | 0.0 | 2.0 | 0.00 | 0.00 | 0.00 | 33 | 984.7 |
| 20260830185328 | 80 | 332 | 0.0 | 1.0 | 0.00 | 0.00 | 0.00 | 34 | 984.6 |
| 20260830184827 | 80 | 352 | 0.0 | 5.0 | 0.00 | 0.00 | 0.00 | 33 | 984.8 |
| 20260830184327 | 79 | 150 | 1.0 | 5.0 | 0.00 | 0.00 | 0.00 | 34 | 985.0 |
| 20260830183828 | 80 | 241 | 2.0 | 4.0 | 0.00 | 0.00 | 0.00 | 33 | 985.0 |
| 20260830183326 | 80 | 176 | 1.0 | 8.0 | 0.00 | 0.00 | 0.00 | 31 | 985.0 |
| 20260830182827 | 80 | 153 | 1.0 | 8.0 | 0.00 | 0.00 | 0.00 | 32 | 985.0 |
| 20260830182327 | 80 | 344 | 0.0 | 3.0 | 0.00 | 0.00 | 0.00 | 31 | 985.1 |
| 20260830181827 | 79 | 212 | 1.0 | 5.0 | 0.00 | 0.00 | 0.00 | 31 | 985.1 |
| 20260830181823 | 79 | 147 | 0.0 | 5.0 | 0.00 | 0.00 | 0.00 | 33 | 985.2 |
| 20260830181428 | 78 | 235 | 0.0 | 3.0 | 0.00 | 0.00 | 0.00 | 36 | 985.3 |
| 20260830180326 | 78 | 350 | 0.0 | 3.0 | 0.00 | 0.00 | 0.00 | 36 | 985.3 |
| 20260830180322 | 78 | 20 | 0.0 | 1.0 | 0.00 | 0.00 | 0.00 | 38 | 985.4 |
| 20260830175320 | 78 | 314 | 0.0 | 1.0 | 0.00 | 0.00 | 0.00 | 38 | 985.4 |
| 20260830174820 | 77 | 193 | 0.0 | 1.0 | 0.00 | 0.00 | 0.00 | 38 | 985.6 |
| 20260830174321 | 76 | 203 | 0.0 | 2.0 | 0.00 | 0.00 | 0.00 | 39 | 985.7 |
| 20260830173821 | 76 | 355 | 0.0 | 2.0 | 0.00 | 0.00 | 0.00 | 39 | 985.8 |
| 20260830173320 | 76 | 326 | 0.0 | 1.0 | 0.00 | 0.00 | 0.00 | 41 | 985.7 |
| 20260830172821 | 75 | 316 | 0.0 | 5.0 | 0.00 | 0.00 | 0.00 | 41 | 985.7 |
| 20260830172325 | 74 | 355 | 1.0 | 5.0 | 0.00 | 0.00 | 0.00 | 42 | 985.9 |
| 20260830172321 | 75 | 357 | 1.0 | 5.0 | 0.00 | 0.00 | 0.00 | 41 | 985.8 |
| 20260830171930 | 74 | 347 | 2.0 | 6.0 | 0.00 | 0.00 | 0.00 | 43 | 986.1 |
| 20260830171926 | 74 | 18 | 1.0 | 5.0 | 0.00 | 0.00 | 0.00 | 41 | 986.0 |
| 20260830170321 | 74 | 348 | 2.0 | 6.0 | 0.00 | 0.00 | 0.00 | 42 | 986.0 |
| 20260830165820 | 74 | 13 | 1.0 | 4.0 | 0.00 | 0.00 | 0.00 | 42 | 986.0 |
| 20260830165320 | 74 | 6 | 0.0 | 3.0 | 0.00 | 0.00 | 0.00 | 41 | 986.0 |
| 20260830164821 | 74 | 349 | 1.0 | 3.0 | 0.00 | 0.00 | 0.00 | 42 | 986.1 |
| 20260830164320 | 74 | 257 | 1.0 | 3.0 | 0.00 | 0.00 | 0.00 | 41 | 986.1 |
| 20260830163820 | 74 | 214 | 0.0 | 3.0 | 0.00 | 0.00 | 0.00 | 41 | 986.1 |
| 20260830163320 | 73 | 257 | 0.0 | 2.0 | 0.00 | 0.00 | 0.00 | 41 | 986.0 |
| 20260830162821 | 73 | 219 | 0.0 | 2.0 | 0.00 | 0.00 | 0.00 | 42 | 986.1 |
| 20260830162321 | 72 | 339 | 0.0 | 1.0 | 0.00 | 0.00 | 0.00 | 44 | 986.1 |
| 20260830161820 | 73 | 286 | 0.0 | 2.0 | 0.00 | 0.00 | 0.00 | 43 | 986.0 |
| 20260830161322 | 72 | 281 | 1.0 | 4.0 | 0.00 | 0.00 | 0.00 | 42 | 986.0 |
| 20260830161318 | 72 | 217 | 1.0 | 3.0 | 0.00 | 0.00 | 0.00 | 41 | 986.0 |
| 20260830160319 | 72 | 165 | 1.0 | 5.0 | 0.00 | 0.00 | 0.00 | 42 | 985.9 |
| 20260830155823 | 71 | 201 | 2.0 | 6.0 | 0.00 | 0.00 | 0.00 | 43 | 985.8 |
| 20260830155819 | 71 | 226 | 1.0 | 6.0 | 0.00 | 0.00 | 0.00 | 43 | 985.8 |
| 20260830154818 | 71 | 210 | 4.0 | 9.0 | 0.00 | 0.00 | 0.00 | 42 | 985.8 |
| 20260830154322 | 71 | 221 | 1.0 | 4.0 | 0.00 | 0.00 | 0.00 | 44 | 985.8 |
| 20260830154318 | 71 | 197 | 2.0 | 9.0 | 0.00 | 0.00 | 0.00 | 42 | 985.8 |
| 20260830153817 | 71 | 212 | 1.0 | 6.0 | 0.00 | 0.00 | 0.00 | 43 | 985.8 |
| 20260830152814 | 70 | 232 | 0.0 | 2.0 | 0.00 | 0.00 | 0.00 | 46 | 985.6 |
| 20260830152315 | 70 | 203 | 0.0 | 2.0 | 0.00 | 0.00 | 0.00 | 46 | 985.4 |
| 20260830151814 | 70 | 201 | 0.0 | 2.0 | 0.00 | 0.00 | 0.00 | 45 | 985.4 |
| 20260830151312 | 70 | 217 | 0.0 | 1.0 | 0.00 | 0.00 | 0.00 | 46 | 985.4 |
| 20260830150812 | 70 | 8 | 0.0 | 0.0 | 0.00 | 0.00 | 0.00 | 47 | 985.7 |
| 20260830150312 | 69 | 8 | 0.0 | 2.0 | 0.00 | 0.00 | 0.00 | 48 | 985.7 |
| 20260830145814 | 69 | 278 | 0.0 | 0.0 | 0.00 | 0.00 | 0.00 | 48 | 985.7 |
| 20260830145810 | 69 | 8 | 0.0 | 2.0 | 0.00 | 0.00 | 0.00 | 47 | 985.6 |
| 20260830144812 | 69 | 203 | 0.0 | 0.0 | 0.00 | 0.00 | 0.00 | 47 | 985.7 |
| 20260830144808 | 69 | 278 | 0.0 | 0.0 | 0.00 | 0.00 | 0.00 | 47 | 985.7 |
| 20260830143809 | 69 | 203 | 0.0 | 0.0 | 0.00 | 0.00 | 0.00 | 49 | 985.7 |
| 20260830143308 | 69 | 203 | 0.0 | 0.0 | 0.00 | 0.00 | 0.00 | 49 | 985.7 |
| 20260830142813 | 69 | 192 | 0.0 | 2.0 | 0.00 | 0.00 | 0.00 | 48 | 985.4 |
| 20260830142809 | 69 | 203 | 0.0 | 2.0 | 0.00 | 0.00 | 0.00 | 49 | 985.7 |
| 20260830141808 | 69 | 224 | 1.0 | 4.0 | 0.00 | 0.00 | 0.00 | 49 | 985.6 |
| 20260830141308 | 68 | 197 | 2.0 | 4.0 | 0.00 | 0.00 | 0.00 | 48 | 985.4 |
| 20260830140812 | 68 | 203 | 1.0 | 5.0 | 0.00 | 0.00 | 0.00 | 50 | 985.4 |
| 20260830140808 | 68 | 192 | 1.0 | 5.0 | 0.00 | 0.00 | 0.00 | 49 | 985.6 |
| 20260830135812 | 67 | 234 | 0.0 | 2.0 | 0.00 | 0.00 | 0.00 | 51 | 985.3 |
| 20260830135808 | 67 | 195 | 0.0 | 4.0 | 0.00 | 0.00 | 0.00 | 50 | 985.4 |
| 20260830134808 | 67 | 234 | 0.0 | 3.0 | 0.00 | 0.00 | 0.00 | 51 | 985.2 |
| 20260830134309 | 67 | 217 | 0.0 | 4.0 | 0.00 | 0.00 | 0.00 | 51 | 985.3 |
| 20260830133808 | 66 | 203 | 1.0 | 5.0 | 0.00 | 0.00 | 0.00 | 52 | 985.4 |
| 20260830133308 | 66 | 212 | 2.0 | 5.0 | 0.00 | 0.00 | 0.00 | 52 | 985.3 |
| 20260830132808 | 66 | 187 | 2.0 | 6.0 | 0.00 | 0.00 | 0.00 | 52 | 985.3 |
| 20260830132307 | 67 | 192 | 3.0 | 7.0 | 0.00 | 0.00 | 0.00 | 51 | 985.3 |
| 20260830131812 | 67 | 179 | 3.0 | 7.0 | 0.00 | 0.00 | 0.00 | 50 | 985.2 |
| 20260830131807 | 67 | 202 | 3.0 | 6.0 | 0.00 | 0.00 | 0.00 | 49 | 985.2 |
| 20260830130806 | 67 | 224 | 3.0 | 7.0 | 0.00 | 0.00 | 0.00 | 49 | 985.1 |
| 20260830130306 | 67 | 198 | 4.0 | 9.0 | 0.00 | 0.00 | 0.00 | 49 | 985.0 |
| 20260830125806 | 67 | 173 | 4.0 | 9.0 | 0.00 | 0.00 | 0.00 | 49 | 984.8 |
| 20260830125306 | 67 | 186 | 4.0 | 8.0 | 0.00 | 0.00 | 0.00 | 49 | 984.7 |
| 20260830124806 | 67 | 187 | 4.0 | 8.0 | 0.00 | 0.00 | 0.00 | 49 | 984.6 |
| 20260830124306 | 67 | 224 | 5.0 | 9.0 | 0.00 | 0.00 | 0.00 | 49 | 984.6 |
| 20260830123811 | 66 | 234 | 6.0 | 11.0 | 0.00 | 0.00 | 0.00 | 50 | 984.4 |
| 20260830123807 | 67 | 199 | 6.0 | 10.0 | 0.00 | 0.00 | 0.00 | 49 | 984.5 |
| 20260830123413 | 66 | 191 | 5.0 | 11.0 | 0.00 | 0.00 | 0.00 | 52 | 984.4 |
| 20260830122914 | 66 | 214 | 5.0 | 10.0 | 0.00 | 0.00 | 0.00 | 53 | 984.4 |
| 20260830121806 | 65 | 197 | 5.0 | 10.0 | 0.00 | 0.00 | 0.00 | 53 | 984.3 |
| 20260830121304 | 65 | 203 | 5.0 | 9.0 | 0.00 | 0.00 | 0.00 | 53 | 984.4 |
| 20260830120804 | 65 | 177 | 6.0 | 11.0 | 0.00 | 0.00 | 0.00 | 54 | 984.3 |
| 20260830120309 | 65 | 198 | 6.0 | 11.0 | 0.00 | 0.00 | 0.00 | 54 | 984.4 |
| 20260830120304 | 66 | 162 | 6.0 | 11.0 | 0.00 | 0.00 | 0.00 | 54 | 984.4 |
| 20260830115306 | 65 | 233 | 5.0 | 12.0 | 0.00 | 0.00 | 0.00 | 54 | 984.3 |
| 20260830114807 | 65 | 183 | 5.0 | 12.0 | 0.00 | 0.00 | 0.00 | 54 | 984.3 |
| 20260830114802 | 65 | 206 | 5.0 | 9.0 | 0.00 | 0.00 | 0.00 | 55 | 984.3 |
| 20260830113802 | 65 | 192 | 5.0 | 9.0 | 0.00 | 0.00 | 0.00 | 55 | 984.3 |
| 20260830113302 | 64 | 198 | 4.0 | 9.0 | 0.00 | 0.00 | 0.00 | 56 | 984.1 |
| 20260830112759 | 64 | 229 | 4.0 | 8.0 | 0.00 | 0.00 | 0.00 | 56 | 984.1 |
| 20260830112300 | 64 | 141 | 4.0 | 7.0 | 0.00 | 0.00 | 0.00 | 56 | 984.3 |
| 20260830111800 | 64 | 163 | 4.0 | 8.0 | 0.00 | 0.00 | 0.00 | 56 | 984.1 |
| 20260830111302 | 65 | 143 | 4.0 | 9.0 | 0.00 | 0.00 | 0.00 | 56 | 984.3 |
| 20260830111258 | 64 | 163 | 4.0 | 9.0 | 0.00 | 0.00 | 0.00 | 56 | 984.3 |
| 20260830110258 | 65 | 153 | 5.0 | 13.0 | 0.00 | 0.00 | 0.00 | 55 | 984.3 |
| 20260830105758 | 65 | 187 | 6.0 | 13.0 | 0.00 | 0.00 | 0.00 | 55 | 984.1 |
| 20260830105256 | 65 | 224 | 6.0 | 13.0 | 0.00 | 0.00 | 0.00 | 55 | 984.3 |
| 20260830104756 | 65 | 178 | 6.0 | 10.0 | 0.00 | 0.00 | 0.00 | 56 | 984.1 |
| 20260830104256 | 64 | 208 | 6.0 | 11.0 | 0.00 | 0.00 | 0.00 | 56 | 984.0 |
| 20260830103756 | 64 | 183 | 6.0 | 12.0 | 0.00 | 0.00 | 0.00 | 57 | 984.1 |
| 20260830103301 | 63 | 172 | 2.0 | 4.0 | 0.00 | 0.00 | 0.00 | 58 | 984.3 |
| 20260830103256 | 64 | 206 | 4.0 | 12.0 | 0.00 | 0.00 | 0.00 | 57 | 984.0 |
| 20260830102756 | 64 | 106 | 3.0 | 7.0 | 0.00 | 0.00 | 0.00 | 58 | 984.1 |
| 20260830101756 | 64 | 191 | 2.0 | 4.0 | 0.00 | 0.00 | 0.00 | 58 | 984.4 |
| 20260830101256 | 64 | 210 | 2.0 | 5.0 | 0.00 | 0.00 | 0.00 | 57 | 984.4 |
| 20260830100800 | 65 | 196 | 2.0 | 7.0 | 0.00 | 0.00 | 0.00 | 54 | 984.3 |
| 20260830100756 | 65 | 174 | 2.0 | 5.0 | 0.00 | 0.00 | 0.00 | 55 | 984.4 |
| 20260830095756 | 66 | 167 | 3.0 | 7.0 | 0.00 | 0.00 | 0.00 | 54 | 984.1 |
| 20260830095256 | 66 | 176 | 3.0 | 8.0 | 0.00 | 0.00 | 0.00 | 54 | 984.0 |
| 20260830094753 | 65 | 191 | 4.0 | 8.0 | 0.00 | 0.00 | 0.00 | 54 | 984.0 |
| 20260830094254 | 65 | 210 | 3.0 | 6.0 | 0.00 | 0.00 | 0.00 | 55 | 984.0 |
| 20260830093754 | 65 | 153 | 3.0 | 9.0 | 0.00 | 0.00 | 0.00 | 55 | 984.1 |
| 20260830093254 | 65 | 135 | 3.0 | 9.0 | 0.00 | 0.00 | 0.00 | 56 | 984.1 |
| 20260830092754 | 64 | 179 | 3.0 | 6.0 | 0.00 | 0.00 | 0.00 | 56 | 984.3 |
| 20260830092258 | 64 | 172 | 3.0 | 5.0 | 0.00 | 0.00 | 0.00 | 57 | 984.4 |
| 20260830092254 | 64 | 172 | 2.0 | 6.0 | 0.00 | 0.00 | 0.00 | 57 | 984.4 |
| 20260830091258 | 63 | 155 | 1.0 | 4.0 | 0.00 | 0.00 | 0.00 | 58 | 984.4 |
| 20260830091254 | 64 | 192 | 3.0 | 6.0 | 0.00 | 0.00 | 0.00 | 57 | 984.4 |
| 20260830090754 | 64 | 183 | 2.0 | 6.0 | 0.00 | 0.00 | 0.00 | 57 | 984.5 |
| 20260830085753 | 63 | 192 | 1.0 | 4.0 | 0.00 | 0.00 | 0.00 | 59 | 984.4 |
| 20260830085253 | 63 | 192 | 1.0 | 4.0 | 0.00 | 0.00 | 0.00 | 59 | 984.4 |
| 20260830084754 | 63 | 216 | 0.0 | 2.0 | 0.00 | 0.00 | 0.00 | 59 | 984.4 |
| 20260830084254 | 63 | 134 | 0.0 | 2.0 | 0.00 | 0.00 | 0.00 | 59 | 984.4 |
| 20260830083754 | 63 | 160 | 0.0 | 1.0 | 0.00 | 0.00 | 0.00 | 59 | 984.4 |
| 20260830083253 | 63 | 137 | 0.0 | 1.0 | 0.00 | 0.00 | 0.00 | 59 | 984.5 |
| 20260830082754 | 63 | 157 | 0.0 | 2.0 | 0.00 | 0.00 | 0.00 | 59 | 984.5 |
| 20260830082254 | 63 | 150 | 0.0 | 2.0 | 0.00 | 0.00 | 0.00 | 59 | 984.5 |
| 20260830081757 | 64 | 185 | 0.0 | 2.0 | 0.00 | 0.00 | 0.00 | 58 | 984.4 |
| 20260830081753 | 64 | 198 | 0.0 | 2.0 | 0.00 | 0.00 | 0.00 | 58 | 984.4 |
| 20260830080758 | 63 | 187 | 1.0 | 4.0 | 0.00 | 0.00 | 0.00 | 58 | 984.4 |
| 20260830080754 | 64 | 203 | 0.0 | 2.0 | 0.00 | 0.00 | 0.00 | 57 | 984.4 |
| 20260830080359 | 63 | 210 | 1.0 | 4.0 | 0.00 | 0.00 | 0.00 | 58 | 984.5 |
| 20260830075258 | 63 | 209 | 0.0 | 3.0 | 0.00 | 0.00 | 0.00 | 58 | 984.5 |
| 20260830075254 | 63 | 172 | 0.0 | 4.0 | 0.00 | 0.00 | 0.00 | 58 | 984.5 |
| 20260830074253 | 63 | 192 | 1.0 | 3.0 | 0.00 | 0.00 | 0.00 | 59 | 984.6 |
| 20260830073754 | 63 | 181 | 0.0 | 2.0 | 0.00 | 0.00 | 0.00 | 59 | 984.6 |
| 20260830073253 | 63 | 200 | 0.0 | 2.0 | 0.00 | 0.00 | 0.00 | 59 | 984.7 |
| 20260830072752 | 63 | 162 | 0.0 | 1.0 | 0.00 | 0.00 | 0.00 | 59 | 984.8 |
| 20260830072252 | 63 | 192 | 0.0 | 2.0 | 0.00 | 0.00 | 0.00 | 59 | 985.0 |
| 20260830071756 | 63 | 193 | 1.0 | 2.0 | 0.00 | 0.00 | 0.00 | 60 | 985.1 |
| 20260830071751 | 63 | 181 | 0.0 | 2.0 | 0.00 | 0.00 | 0.00 | 60 | 985.0 |
| 20260830071250 | 62 | 166 | 0.0 | 2.0 | 0.00 | 0.00 | 0.00 | 61 | 985.2 |
| 20260830070249 | 62 | 195 | 0.0 | 2.0 | 0.00 | 0.00 | 0.00 | 61 | 985.2 |
| 20260830065751 | 62 | 192 | 0.0 | 2.0 | 0.00 | 0.00 | 0.00 | 61 | 985.3 |
| 20260830065249 | 62 | 151 | 0.0 | 2.0 | 0.00 | 0.00 | 0.00 | 61 | 985.3 |
| 20260830064749 | 62 | 146 | 0.0 | 0.0 | 0.00 | 0.00 | 0.00 | 61 | 985.4 |
| 20260830064249 | 62 | 145 | 0.0 | 0.0 | 0.00 | 0.00 | 0.00 | 61 | 985.4 |
| 20260830063752 | 62 | 151 | 0.0 | 1.0 | 0.00 | 0.00 | 0.00 | 61 | 985.7 |
| 20260830063747 | 62 | 159 | 0.0 | 0.0 | 0.00 | 0.00 | 0.00 | 62 | 985.6 |
| 20260830063352 | 62 | 155 | 0.0 | 2.0 | 0.00 | 0.00 | 0.00 | 61 | 985.8 |
| 20260830062253 | 62 | 163 | 0.0 | 2.0 | 0.00 | 0.00 | 0.00 | 63 | 986.0 |
| 20260830062247 | 62 | 195 | 0.0 | 3.0 | 0.00 | 0.00 | 0.00 | 61 | 985.9 |
| 20260830061748 | 62 | 162 | 0.0 | 3.0 | 0.00 | 0.00 | 0.00 | 62 | 985.9 |
| 20260830060748 | 62 | 162 | 0.0 | 2.0 | 0.00 | 0.00 | 0.00 | 63 | 986.0 |
| 20260830060245 | 62 | 193 | 0.0 | 1.0 | 0.00 | 0.00 | 0.00 | 64 | 986.0 |
| 20260830055746 | 62 | 200 | 0.0 | 0.0 | 0.00 | 0.00 | 0.00 | 64 | 985.9 |
| 20260830055242 | 62 | 200 | 0.0 | 0.0 | 0.00 | 0.00 | 0.00 | 64 | 986.0 |
| 20260830054742 | 62 | 200 | 0.0 | 0.0 | 0.00 | 0.00 | 0.00 | 63 | 986.0 |
| 20260830054242 | 62 | 200 | 0.0 | 1.0 | 0.00 | 0.00 | 0.00 | 63 | 986.4 |